Location: Lake Arresoe
(56.0000°N, 12.5000°E)
Time: 10:37:08
(UTC+02:00)

Resurs 1-4 Rocket - Pass Details

Date: 16 August 2020
Orbit: 799 x 815 km, 98.6° (Epoch: 23 September)

Event Time Altitude Azimuth Distance (km) Brightness Sun altitude
Rises 04:45:46 0° 12° (NNE) 3,334 6.2 -7.6°
Reaches altitude 10° 04:48:31 10° 359° (N) 2,397 5.1 -7.3°
Maximum altitude 04:52:38 24° 308° (NW) 1,628 3.6 -6.9°
Drops below altitude 10° 04:56:43 10° 256° (WSW) 2,380 4.0 -6.4°
Enters shadow 04:57:40 - 251° (WSW) 2,686 4.2 -6.3°
